User: anonymous   Login
Location: Unspecified
(0.0000°N, 0.0000°E)
Time: 19:16:12
(UTC+02:00)
Language:

Cosmos 1933 - Orbit

View from above orbital plane
View from above orbital plane
View from above satellite
View from above satellite

Ground track
Ground track

The orbit data is extracted from the following two-line orbital elements,

1 18958U 88020A   18170.88141501 +.00000021 +00000-0 -59327-6 0  9990
2 18958 082.5298 108.9970 0013256 108.7160 251.5506 15.03453318625607
Epoch (UTC): 19 June 2018 21:09:14
Eccentricity: 0.0013256
inclination: 82.5298°
perigee height: 547 km
apogee height: 565 km
right ascension of ascending node: 108.9970°
argument of perigee: 108.7160°
revolutions per day: 15.03453318
mean anomaly at epoch: 251.5506°
orbit number at epoch: 62560

The dashed part of the orbit path shows where the satellite is in the earth's shadow,  

DLR